Regional Weather Roundup
Issued by NWS Charleston, WV

Home | Current Version | Previous Version | Graphics & Text | Print | Product List | Glossary On
Versions: 1 2 3 4 5 6 7 8 9 10 11 12 13 14 15 16 17 18 19 20 21 22 23 24 25 26 27 28 29 30 31 32 33 34 35 36 37 38 39 40 41 42 43 44 45 46 47 48 49 50
000
ASUS41 KRLX 170310
RWRRLX
West Virginia Regional Weather Roundup
National Weather Service Charleston WV
1000 PM EST TUE DEC 16 2014

Note: "fair" indicates few or no clouds below 12,000 feet with no
significant weather and/or obstructions to visibility.

WVZ003-170400-
Northern Panhandle of West Virginia

CITY           SKY/WX    TMP DP  RH WIND       PRES   REMARKS
WHEELING       CLOUDY    42  38  85 SW9G21    29.92R
$$

WVZ009-170400-
Northwest West Virginia

CITY           SKY/WX    TMP DP  RH WIND       PRES   REMARKS
PARKERSBURG    CLOUDY    43  38  82 W12G20    30.03R
$$

WVZ006-170400-
Western West Virginia

CITY           SKY/WX    TMP DP  RH WIND       PRES   REMARKS
HUNTINGTON     CLOUDY    42  38  85 W12G20    30.07R
$$

WVZ015-170400-
West Central West Virginia

CITY           SKY/WX    TMP DP  RH WIND       PRES   REMARKS
CHARLESTON     DRIZZLE   43  40  89 W10       30.05R
$$

WVZ022-031-170400-
North Central West Virginia

CITY           SKY/WX    TMP DP  RH WIND       PRES   REMARKS
CLARKSBURG     CLOUDY    43  40  89 W9        29.98R
MORGANTOWN     CLOUDY    43  39  86 W5        29.96R
$$

WVZ025-035-042-045-170400-
Southern West Virginia

CITY           SKY/WX    TMP DP  RH WIND       PRES   REMARKS
BECKLEY        LGT RAIN  40  37  89 W10       30.01R
LOGAN          CLOUDY    43  39  87 W10G18    30.05R
BLUEFIELD      LGT RAIN  41  36  82 W10G23    30.02R
LEWISBURG      DRIZZLE   44  38  81 W6        29.99R
$$

WVZ047-170400-
Northern Mountains of West Virginia

CITY           SKY/WX    TMP DP  RH WIND       PRES   REMARKS
ELKINS         LGT RAIN  42  39  89 W12G20    29.97R
$$

WVZ052-170400-
Eastern Panhandle of West Virginia

CITY           SKY/WX    TMP DP  RH WIND       PRES   REMARKS
MARTINSBURG    FOG       39  36  89 W3        29.90S VSB 1/4
PETERSBURG     DRIZZLE   42  42 100 CALM      29.93R
$$



USA.gov is the U.S. government's official web portal to all federal, state and local government web resources and services.